CW3363 Weather Reports


Display with metric or nautical units.
time (UTC)temp
F
wind
direction
speed
MPH
gust
MPH
rain 1hr
in
rain 24hr
in
rain mn
in
humidity
%
barometer
mb
20260503203349 81 295 2.0 6.0 0.00 0.00 0.00 37 1020.3
20260503202853 81 326 1.0 9.0 0.00 0.00 0.00 39 1020.3
20260503202357 80 120 3.0 9.0 0.00 0.00 0.00 39 1020.3
20260503201825 80 317 2.0 5.0 0.00 0.00 0.00 36 1020.6
20260503201331 81 84 2.0 5.0 0.00 0.00 0.00 37 1020.6
20260503200837 80 131 2.0 5.0 0.00 0.00 0.00 38 1020.6
20260503200322 80 70 2.0 6.0 0.00 0.00 0.00 40 1020.8
20260503195829 82 108 1.0 6.0 0.00 0.00 0.00 38 1020.8
20260503195338 82 63 2.0 5.0 0.00 0.00 0.00 37 1020.8
20260503194827 82 236 2.0 5.0 0.00 0.00 0.00 37 1021.1
20260503194336 81 234 1.0 9.0 0.00 0.00 0.00 39 1021.1
20260503193822 80 182 5.0 9.0 0.00 0.00 0.00 39 1021.1
20260503193331 79 138 2.0 12.0 0.00 0.00 0.00 41 1021.2
20260503192837 79 132 9.0 12.0 0.00 0.00 0.00 40 1021.2
20260503192343 80 77 4.0 7.0 0.00 0.00 0.00 41 1021.2
20260503191828 81 80 3.0 5.0 0.00 0.00 0.00 41 1021.6
20260503191333 80 306 2.0 7.0 0.00 0.00 0.00 37 1021.6
20260503190840 80 272 1.0 7.0 0.00 0.00 0.00 40 1021.6
20260503190325 80 179 3.0 11.0 0.00 0.00 0.00 38 1021.7
20260503185830 79 133 2.0 11.0 0.00 0.00 0.00 40 1021.7
20260503185339 79 99 2.0 11.0 0.00 0.00 0.00 42 1021.7
20260503184824 79 132 4.0 7.0 0.00 0.00 0.00 40 1021.8
20260503184332 79 57 3.0 5.0 0.00 0.00 0.00 40 1021.8
20260503183821 78 296 1.0 10.0 0.00 0.00 0.00 40 1021.8
20260503183326 78 355 2.0 10.0 0.00 0.00 0.00 42 1022.1
20260503182832 78 139 4.0 9.0 0.00 0.00 0.00 43 1022.1
20260503182337 79 126 5.0 9.0 0.00 0.00 0.00 41 1022.2
20260503181822 79 70 2.0 5.0 0.00 0.00 0.00 39 1022.2
20260503181331 79 78 2.0 5.0 0.00 0.00 0.00 41 1022.2
20260503180821 80 185 2.0 7.0 0.00 0.00 0.00 39 1022.2
20260503180325 79 250 0.0 7.0 0.00 0.00 0.00 40 1022.7
20260503175849 79 178 4.0 7.0 0.00 0.00 0.00 42 1022.7
20260503175337 79 82 3.0 5.0 0.00 0.00 0.00 42 1022.7
20260503174825 79 172 2.0 9.0 0.00 0.00 0.00 41 1022.8
20260503174331 78 116 6.0 9.0 0.00 0.00 0.00 41 1022.8
20260503173836 78 66 2.0 7.0 0.00 0.00 0.00 41 1022.8
20260503173322 78 295 2.0 6.0 0.00 0.00 0.00 43 1023.2
20260503172829 77 182 0.0 11.0 0.00 0.00 0.00 44 1023.2
20260503172355 76 276 2.0 11.0 0.00 0.00 0.00 44 1023.2
20260503171840 77 118 5.0 11.0 0.00 0.00 0.00 42 1023.3
20260503171326 77 138 4.0 8.0 0.00 0.00 0.00 43 1023.3
20260503170835 76 212 3.0 11.0 0.00 0.00 0.00 46 1023.3
20260503170321 76 224 5.0 11.0 0.00 0.00 0.00 44 1023.3
20260503150819 73 193 5.0 8.0 0.00 0.00 0.00 53 1023.2
20260503150327 72 151 4.0 9.0 0.00 0.00 0.00 54 1023.3
20260503060343 58 23 0.0 0.0 0.00 0.00 0.00 90 1021.5
20260503054837 58 23 0.0 0.0 0.00 0.00 0.00 90 1021.5
20260503054323 59 23 0.0 0.0 0.00 0.00 0.00 90 1021.5
20260503053850 59 23 0.0 0.0 0.00 0.00 0.00 90 1021.5
20260503053355 59 23 0.0 0.0 0.00 0.00 0.00 89 1021.2
20260503052840 59 23 0.0 0.0 0.00 0.00 0.00 89 1021.2
20260503052327 59 23 0.0 0.0 0.00 0.00 0.00 89 1021.2
20260503051855 59 23 0.0 0.0 0.00 0.00 0.00 89 1021.3
20260503051340 59 23 0.0 0.0 0.00 0.00 0.00 89 1021.3
20260503050827 59 23 0.0 0.0 0.00 0.00 0.00 88 1021.3
20260503050337 59 23 0.0 0.0 0.00 0.00 0.00 88 1021.2
20260503045822 59 23 0.0 0.0 0.00 0.00 0.00 88 1021.2
20260503045336 59 23 0.0 0.0 0.00 0.00 0.00 88 1021.2
20260503044843 59 23 0.0 0.0 0.00 0.00 0.00 87 1021.1
20260503044348 60 23 0.0 0.0 0.00 0.00 0.00 86 1021.1
20260503043833 60 23 0.0 0.0 0.00 0.00 0.00 86 1021.1
20260503043401 60 23 0.0 0.0 0.00 0.00 0.00 86 1021.1
20260503042827 60 23 0.0 0.0 0.00 0.00 0.00 86 1021.1
20260503042333 60 23 0.0 0.0 0.00 0.00 0.00 86 1021.1
20260503041840 60 23 0.0 0.0 0.00 0.00 0.00 85 1021.2
20260503041326 60 23 0.0 0.0 0.00 0.00 0.00 85 1021.2
20260503040835 61 23 0.0 0.0 0.00 0.00 0.00 85 1021.2
20260503040341 61 23 0.0 0.0 0.00 0.00 0.00 85 1021.0
20260503035826 61 23 0.0 0.0 0.00 0.00 0.00 85 1021.0
20260503035336 61 23 0.0 0.0 0.00 0.00 0.00 84 1021.0
20260503034822 61 23 0.0 0.0 0.00 0.00 0.00 84 1020.6
20260503034351 61 23 0.0 0.0 0.00 0.00 0.00 83 1020.6
20260503033837 61 23 0.0 0.0 0.00 0.00 0.00 83 1020.6
20260503033343 62 23 0.0 0.0 0.00 0.00 0.00 82 1020.6
20260503032828 62 23 0.0 0.0 0.00 0.00 0.00 82 1020.6
20260503032358 62 23 0.0 0.0 0.00 0.00 0.00 81 1020.6
20260503031824 62 23 0.0 0.0 0.00 0.00 0.00 81 1020.6
20260503031349 62 23 0.0 0.0 0.00 0.00 0.00 81 1020.6
20260503030854 62 23 0.0 0.0 0.00 0.00 0.00 80 1020.6
20260503030339 62 23 0.0 0.0 0.00 0.00 0.00 80 1020.6
20260503025824 63 23 0.0 0.0 0.00 0.00 0.00 81 1020.6
20260503025354 63 23 0.0 0.0 0.00 0.00 0.00 80 1020.6
20260503024819 63 23 0.0 0.0 0.00 0.00 0.00 79 1020.4
20260503024332 63 23 0.0 0.0 0.00 0.00 0.00 79 1020.4
20260503023841 64 23 0.0 0.0 0.00 0.00 0.00 79 1020.4
20260503023328 64 23 0.0 0.0 0.00 0.00 0.00 78 1020.2
20260503022834 64 23 0.0 0.0 0.00 0.00 0.00 77 1020.2
20260503022339 64 23 0.0 0.0 0.00 0.08 0.00 76 1020.2
20260503021825 64 23 0.0 0.0 0.00 0.08 0.00 75 1020.1
20260503021331 65 23 0.0 0.0 0.00 0.08 0.00 75 1020.1
20260503020858 65 23 0.0 0.0 0.00 0.08 0.00 74 1020.1
20260503020343 65 23 0.0 0.0 0.00 0.08 0.00 74 1020.0
20260503015847 65 23 0.0 0.0 0.00 0.08 0.00 73 1020.0
20260503015335 66 23 0.0 0.0 0.00 0.08 0.00 72 1020.0
20260503014841 66 23 0.0 0.0 0.00 0.08 0.00 70 1019.6
20260503014331 67 23 0.0 0.0 0.00 0.08 0.00 69 1019.7
20260503013837 67 23 0.0 0.0 0.00 0.08 0.00 69 1019.7
20260503013326 68 23 0.0 0.0 0.00 0.08 0.00 67 1019.6
20260503012853 68 23 0.0 0.0 0.00 0.08 0.00 67 1019.6
20260503012339 69 23 0.0 0.0 0.00 0.19 0.00 66 1019.6
20260503011845 69 23 0.0 0.0 0.00 0.19 0.00 64 1019.6
20260503011350 70 23 0.0 0.0 0.00 0.19 0.00 63 1019.6
20260503010836 70 23 0.0 0.0 0.00 0.19 0.00 62 1019.6
20260503010402 71 23 0.0 0.0 0.00 0.19 0.00 61 1019.3
20260503005825 71 23 0.0 0.0 0.00 0.19 0.00 59 1019.3
20260503005351 71 23 0.0 0.0 0.00 0.19 0.00 59 1019.3
20260503004857 72 23 0.0 0.0 0.00 0.19 0.00 58 1019.1
20260503004323 72 23 0.0 0.0 0.00 0.19 0.00 56 1019.1
20260503003850 72 32 0.0 2.0 0.00 0.19 0.00 55 1019.1
20260503003356 73 32 0.0 3.0 0.00 0.19 0.00 55 1019.0
20260503002822 73 352 0.0 1.0 0.00 0.19 0.00 54 1019.0
20260503002331 73 352 0.0 2.0 0.00 0.27 0.00 54 1019.0
20260503001841 74 352 0.0 3.0 0.00 0.27 0.00 54 1018.9
20260503001347 74 81 1.0 3.0 0.00 0.27 0.00 53 1018.9
20260503000832 74 37 0.0 2.0 0.00 0.27 0.00 52 1018.9
20260503000400 74 10 0.0 3.0 0.00 0.27 0.00 52 1018.6
20260502235844 74 51 1.0 5.0 0.00 0.27 0.00 50 1018.6
20260502235327 74 319 3.0 5.0 0.00 0.27 0.00 49 1018.6
20260502234833 75 63 0.0 5.0 0.00 0.27 0.00 51 1018.6
20260502234339 75 350 3.0 5.0 0.00 0.27 0.00 49 1018.6
20260502233825 75 358 1.0 5.0 0.00 0.27 0.00 49 1018.6
20260502233331 75 61 0.0 9.0 0.00 0.27 0.00 50 1018.7
20260502232858 75 353 5.0 9.0 0.00 0.27 0.00 48 1018.7
20260502232321 75 336 3.0 7.0 0.00 0.41 0.00 49 1018.7
20260502231831 76 9 1.0 7.0 0.00 0.41 0.00 49 1018.6
20260502231321 76 5 2.0 5.0 0.00 0.41 0.00 48 1018.6
20260502230850 76 350 2.0 6.0 0.00 0.41 0.00 48 1018.6
20260502230335 76 10 3.0 6.0 0.00 0.41 0.00 48 1018.6
20260502225900 76 40 2.0 6.0 0.00 0.41 0.00 48 1018.6
20260502225326 76 6 2.0 6.0 0.00 0.41 0.00 48 1018.6
20260502224832 77 9 1.0 6.0 0.00 0.41 0.00 47 1018.5
20260502224338 77 274 2.0 6.0 0.00 0.41 0.00 49 1018.5
20260502223847 77 340 1.0 5.0 0.00 0.41 0.00 50 1018.5
20260502223335 77 5 1.0 5.0 0.00 0.41 0.00 49 1018.8
20260502222841 76 310 3.0 6.0 0.00 0.41 0.00 48 1018.8
20260502222326 76 66 1.0 6.0 0.00 0.43 0.00 48 1018.8
20260502221833 76 47 2.0 6.0 0.00 0.43 0.00 49 1019.0
20260502221340 76 298 3.0 6.0 0.00 0.43 0.00 47 1019.0
20260502220829 76 334 3.0 5.0 0.00 0.43 0.00 48 1019.0
20260502220336 76 92 2.0 5.0 0.00 0.43 0.00 46 1018.8
20260502215820 76 71 2.0 5.0 0.00 0.43 0.00 49 1018.8
20260502215329 76 94 3.0 6.0 0.00 0.43 0.00 50 1018.8
20260502214835 76 81 2.0 7.0 0.00 0.43 0.00 49 1019.0
20260502214401 76 291 2.0 7.0 0.00 0.43 0.00 49 1019.0
20260502213826 75 45 2.0 7.0 0.00 0.43 0.00 51 1019.0
20260502213334 75 22 2.0 7.0 0.00 0.43 0.00 49 1019.1
20260502212840 76 342 2.0 5.0 0.00 0.43 0.00 49 1019.1
20260502212326 75 349 1.0 5.0 0.00 0.49 0.00 51 1019.1
20260502211856 75 35 1.0 4.0 0.00 0.49 0.00 50 1019.1
20260502211401 75 6 2.0 5.0 0.00 0.49 0.00 49 1019.1
20260502210847 76 359 2.0 5.0 0.00 0.49 0.00 48 1019.1
20260502210336 76 229 2.0 5.0 0.00 0.49 0.00 49 1019.2
20260502205820 75 75 1.0 5.0 0.00 0.49 0.00 51 1019.2
20260502205329 75 91 0.0 5.0 0.00 0.49 0.00 50 1019.2
20260502204835 75 358 2.0 5.0 0.00 0.49 0.00 50 1019.4
20260502204324 75 224 2.0 10.0 0.00 0.49 0.00 50 1019.4
20260502203829 75 357 3.0 10.0 0.00 0.49 0.00 51 1019.4